Weather in Podgornoye

Russia / Chechen Republic     43°34′54″N   45°26′29″E
temp.,
°C
wind,
m/s
gust,
m/s
humid.,
%
clouds,
%
prec.,
mm/h
press.,
hPa
HPBL,
m
20 april, tue
tue2000:00+15ne225698 0.0 101578
03:00+12ene2261100 0.0 101332
06:00+13ese3565100 0.0 1011147
09:00+17e5755100 0.0 1009375
12:00+24e6742100 0.0 1006691
15:00+27ene333785 0.0 1005775
18:00+20ene346034 0.0 100586
21:00+19wnw3463100 0.0 100884
21 april, wed
wed2100:00+16w61184100 0.1 1011371
03:00+15wnw61087100 0.1 1013420
06:00+15wnw5969100 0.0 1015566
09:00+15nw5762100 0.0 1018887
12:00+16nnw5652100 0.0 1018921
15:00+15n3560100 0.3 1018902
18:00+14nnw2566100 0.5 1021316
21:00+11wnw2283100 0.6 102258
22 april, thu
thu2200:00+11ssw117597 0.1 102125
03:00+12wsw0071100 0.1 102128
06:00+12nnw1175100 0.0 102271
09:00+13n2370100 0.0 1022481
12:00+15nne446182 0.0 10231100
15:00+15ene445799 0.0 10211280
18:00+14ne3564100 0.0 1021234
21:00+13ne2671100 0.1 1021273
23 april, fri
fri2300:00+12nne2579100 0.0 1020281
03:00+11nw3590100 0.6 1020260
06:00+10nw3694100 0.3 1022321
09:00+10nnw3594100 2.9 1023366
12:00+11wnw5882100 1.1 1023718
15:00+16w465684 1.1 10221510
18:00+15nw23641 0.0 102270
21:00+11ssw00785 0.0 102110
24 april, sat
sat2400:00+10sse227980 0.0 102011
03:00+11s117868 0.0 102011
06:00+11s1178100 0.0 102016
09:00+16ene115934 0.0 1020607
12:00+20ene44414 0.0 10191447
15:00+21ene44434 0.0 10181645
18:00+17e585622 0.0 1019326
21:00+13ese3467100 0.0 102095